Regional Weather Roundup
Issued by NWS Upton, NY

Current Version | Previous Version | Graphics & Text | Print | Product List | Glossary Off
Versions: 1 2 3 4 5 6 7 8 9 10 11 12 13 14 15 16 17 18 19 20 21 22 23 24 25 26 27

000
ASUS41 KOKX 231709
RWROKX

REGIONAL WEATHER ROUNDUP
NATIONAL WEATHER SERVICE NEW YORK NY
100 PM EDT FRI JUN 23 2017

NOTE: "FAIR" INDICATES FEW OR NO CLOUDS BELOW 12,000 FEET WITH NO
SIGNIFICANT WEATHER AND/OR OBSTRUCTIONS TO VISIBILITY.

NYZ071-072-176-178-NJZ106-104-231800-
NEW YORK CITY METRO AREA

CITY           SKY/WX    TMP DP  RH WIND       PRES   REMARKS
Central Park   PTSUNNY   81  71  71 VRB7G18   29.76F
Bronx Bot Gard   N/A     82  68  61 SW12      29.73F
LaGuardia APRT PTSUNNY   84  72  67 SW16G22   29.72F
Kennedy INTL   CLOUDY    83  75  77 S13       29.75F HX  90
Breezy Point     N/A     77 N/A N/A SW8G14      N/A
Newark/Liberty CLOUDY    81  70  69 S17G23    29.72F
Teterboro      CLOUDY    83  70  64 SW15      29.71F
$$

NYZ177-179-078>081-231800-
LONG ISLAND NEW YORK

CITY           SKY/WX    TMP DP  RH WIND       PRES   REMARKS
Jones Beach      N/A     73 N/A N/A S12         N/A
Matinecock PT  NOT AVBL
Farmingdale    NOT AVBL
MacArthur/ISP  CLOUDY    79  73  82 SW15      29.75F
Shirley        CLOUDY    79  73  82 S15G21    29.77F
Mt Sinai Harb    N/A     79 N/A N/A S13G18      N/A
Westhampton    CLOUDY    76  69  79 SW10G22   29.79F
East Hampton   CLOUDY    73  68  86 S9G20     29.78F
Montauk          N/A     72  69  90 S10G20    29.79F
$$

NYZ052-065-067-231800-
HUDSON VALLEY

CITY           SKY/WX    TMP DP  RH WIND       PRES   REMARKS
White Plains   MOSUNNY   81  73  78 S7        29.76F
Larchmont Harb   N/A     73 N/A N/A S14         N/A
Croton O-T Hud   N/A     81 N/A N/A S7G15       N/A
Newburgh       PTSUNNY   82  72  69 SW12      29.72F
Montgomery     PTSUNNY   84  69  60 SW15      29.69F
Poughkeepsie   CLOUDY    84  71  65 VRB6      29.68F
Albany         PTSUNNY   85  68  56 SE13G22   29.65F
$$

NJZ001-105-106-008-010-013-015-019>022-104-231800-
NEW JERSEY

CITY           SKY/WX    TMP DP  RH WIND       PRES   REMARKS
Newark/Liberty CLOUDY    81  70  69 S17G23    29.72F
Teterboro      CLOUDY    83  70  64 SW15      29.71F
Caldwell       CLOUDY    81  69  67 SW7       29.73F
Somerville     LGT RAIN  77  71  82 S8G22     29.72F
Linden         CLOUDY    82  68  63 SW7       29.73F
Perth Amboy      N/A     77 N/A N/A SW18G25     N/A
Sussex         CLOUDY    80  71  74 SW13G21   29.72F
Andover          N/A     75  70  84 VRB5      29.74F
Trenton        CLOUDY    76  71  85 SW16G22   29.75F
Millville      CLOUDY    79  75  87 SW10G20   29.80F
Atlantic City  CLOUDY    79  73  82 SW16G24   29.80F
Wrightstown    CLOUDY    77  71  83 SW14      29.74F
Toms River       N/A     78  71  79 SW13G20   29.78F
Belmar         CLOUDY    78  70  76 SW14G22   29.77F
$$

PAZ047>061-062-071-231800-
EASTERN PENNSYLVANIA

CITY           SKY/WX    TMP DP  RH WIND       PRES   REMARKS
Philadelphia   CLOUDY    80  71  74 SW17      29.76F
Allentown      CLOUDY    76  71  85 SW12G18   29.73F
Scranton       LGT RAIN  75  70  84 SW10      29.72F
$$

CTZ002-004>006-009-010-012-RIZ004-006-007-MAZ004-011-015-231800-
SOUTHERN NEW ENGLAND
 IN CT

CITY           SKY/WX    TMP DP  RH WIND       PRES   REMARKS
Bradley INTL   PTSUNNY   88  69  53 S22G29    29.70F HX  92
Hartford       MOSUNNY   87  72  60 S10       29.70F HX  93
Danbury        CLOUDY    83  73  72 S8        29.73F
Wtrbury/Oxford PTSUNNY   82  70  65 S12G20    29.76F
Bridgeport     CLOUDY    81  71  71 S12       29.73F
Meriden        PTSUNNY   83  71  67 S15G23    29.72F
New Haven      CLOUDY    79  72  78 S9G20     29.74F
Chester        FAIR      81  72  74 S9G16     29.76F
Groton           N/A    N/A N/A N/A MISG      29.76F
Wilimantic     CLOUDY    88  71  57 S14G22    29.74F HX  94

 IN RI

CITY           SKY/WX    TMP DP  RH WIND       PRES   REMARKS
Providence     CLOUDY    86  72  62 S23G30    29.76F HX  92
Block Island   PTSUNNY   71  67  87 S17       29.80F
Westerly       MOSUNNY   75  69  81 S8        29.79F
 IN MA

CITY           SKY/WX    TMP DP  RH WIND       PRES   REMARKS
Boston         MOSUNNY   88  71  57 S17       29.71F HX  94
Worcester      CLOUDY    85  65  51 SW16G22   29.75F
Westfield      CLOUDY    87  70  56 S14       29.69F HX  92
Provincetown   SUNNY     79  70  74 S14       29.77F
Nantucket      CLOUDY    68  65  90 S14       29.83F
$$

ANZ330-335-338-340-345-350-353-355-231800-
COASTAL MARINE OBSERVATIONS


STATION/POSITION TIME  SKY/WX   TEMP    WIND        PRES    VSBY  WAVE
                                AIR SEA DIR/SP/G                  HT/PER
                 (UTC)          (F)     (DEG/KT/KT) (MB)    (MI)  (FT/S)
NY HARB ENTRANCE 1550            69 67  200/ 14/ 16 1008.5          2/ 9
20 S FIRE ISLAND 1650            71 69  220/ 17/ 21 1007.8          3/ 4
GREAT SOUTH BAY  1630            73 76  220/ 16/ 19   N/A
23 SSW MONTAUK P 1550            68 64              1009.7          3/ 8
15 E BARNEGAT LI 1630               65                N/A           4/ 4
HUDSON CANYON    1550            71 67  230/ 16/ 17 1010.9          3/ 8
KINGS POINT      1642            78 66  250/ 16/ 18 1006.6
EXECUTION ROCKS  1645            76     190/ 12/ 16   N/A
CENTRAL LI SOUND 1630            73     190/ 12/ 12   N/A           0
EASTERN LI SOUND NOT AVBL
ROBBINS REEF     1636                   210/ 12/ 17 1007.6
$$


>>>>>>>>>>>>>>>>>>>>>>>>>>>> KEY <<<<<<<<<<<<<<<<<<<<<<<<<<<
>                                                          <
>     SKY/WX - Sky Condition/Present Weather               <
>     TMP    - Temperature in Fahrenheit                   <
>     DP     - Dew Point in Fahrenheit                     <
>     RH     - Relative Humidity in Percent                <
>     WIND   - Direction (from) and Speed in MPH           <
>     PRES   - Mean Sea Level Pressure (inches of Hg)      <
>     WCI    - Wind Chill Index                            <
>     VSB    - VISIBILITY IN MILES                         <
>     HX     - HEAT INDEX                                  <
>     TC     - TEMPERATURE IN CELSIUS                      <
>     VRB    - VARIABLE WIND DIRECTION                     <
>                                                          <
>>>>>>>>>>>>>>>>>>>>>>>>>>>> KEY <<<<<<<<<<<<<<<<<<<<<<<<<<<




USA.gov is the U.S. government's official web portal to all federal, state and local government web resources and services.